Zurück zum Katalog

BRITE TORONTO

AktivWissenschaftSSO
NORAD 40020·PAYLOAD·🇨🇦 Canada

Gestartet Jun 19, 2014 von Dombarovsky

Loading…

Nächste Überflüge (nächste 24 Stunden)

TLE

AktuellSource: Space-Track

Epoche: Sep 14, 2026, 14:01 UTC

1 40020U 14033L   26257.58441532  .00000483  00000-0  80118-4 0  9998
2 40020  97.9857  24.9259 0078158 351.7359   8.2556 14.72813049655377

Verfolge BRITE TORONTO in Echtzeit mit AllMySat

Download on the App Store